When you browse on this site, cookies collect data to enhance your experience and personalize the content and advertising you see.
Visit our Privacy Policy to learn more. By continuing to use the site, you agree to this use of cookies and data.
  • In Hungary
  • List of Countries
  • For 7 days
  • Water Temperature
  • Satellite Maps
  • Weather Map
  • News
  • Weather Widgets
  • user-avatar
    Login

    Hourly Weather Skladowice

    Today, 24 May, Friday

    Time Temperature Precipitation Wind Pressure Humidity
    00:00 +10°C° 0 mm 1 mps 750 mmHg 84%
    01:00 +9°C° 0 mm 1 mps 750 mmHg 83%
    02:00 +8°C° 0 mm 1 mps 750 mmHg 83%
    03:00 +8°C° 0 mm 1 mps 750 mmHg 83%
    04:00 +8°C° 0 mm 1 mps 750 mmHg 84%
    05:00 +9°C° 0 mm 1 mps 750 mmHg 79%
    06:00 +11°C° 0 mm 1 mps 750 mmHg 74%
    07:00 +13°C° 0 mm 2 mps 749 mmHg 66%
    08:00 +15°C° 0 mm 2 mps 749 mmHg 61%
    09:00 +16°C° 0 mm 2 mps 749 mmHg 55%
    10:00 +18°C° 0 mm 2 mps 749 mmHg 49%
    11:00 +20°C° 0 mm 1 mps 749 mmHg 46%
    12:00 +21°C° 0 mm 1 mps 748 mmHg 43%
    13:00 +22°C° 0 mm 1 mps 748 mmHg 40%
    14:00 +22°C° 0 mm 1 mps 748 mmHg 40%
    15:00 +22°C° 0 mm 1 mps 747 mmHg 40%
    16:00 +20°C° 0 mm 0 mps 747 mmHg 39%
    17:00 +21°C° 0 mm 1 mps 747 mmHg 46%
    18:00 +19°C° 0 mm 1 mps 746 mmHg 53%
    19:00 +17°C° 0 mm 2 mps 746 mmHg 60%
    20:00 +16°C° 0 mm 2 mps 746 mmHg 63%
    21:00 +14°C° 0 mm 2 mps 746 mmHg 65%
    22:00 +13°C° 0 mm 2 mps 747 mmHg 68%
    23:00 +13°C° 0 mm 2 mps 747 mmHg 72%

    Tomorrow, 25 May, Saturday

    Time Temperature Precipitation Wind Pressure Humidity
    00:00 +13°C° 0 mm 2 mps 747 mmHg 76%
    01:00 +13°C° 0 mm 2 mps 747 mmHg 80%
    02:00 +11°C° 0 mm 3 mps 746 mmHg 83%
    03:00 +11°C° 0 mm 3 mps 746 mmHg 87%
    04:00 +11°C° 0 mm 3 mps 746 mmHg 90%
    05:00 +12°C° 0 mm 3 mps 746 mmHg 87%
    06:00 +14°C° 0 mm 3 mps 747 mmHg 83%
    07:00 +15°C° 0 mm 4 mps 747 mmHg 79%
    08:00 +17°C° 0.1 mm 4 mps 747 mmHg 75%
    09:00 +18°C° 0.1 mm 4 mps 747 mmHg 71%
    10:00 +20°C° 0.1 mm 4 mps 747 mmHg 67%
    11:00 +20°C° 0.2 mm 4 mps 747 mmHg 62%
    12:00 +21°C° 0.2 mm 4 mps 747 mmHg 58%
    13:00 +22°C° 0.2 mm 4 mps 747 mmHg 53%
    14:00 +22°C° 0 mm 4 mps 747 mmHg 52%
    15:00 +22°C° 0 mm 4 mps 747 mmHg 51%
    16:00 +22°C° 0 mm 3 mps 747 mmHg 50%
    17:00 +21°C° 0 mm 3 mps 747 mmHg 56%
    18:00 +19°C° 0 mm 2 mps 747 mmHg 63%
    19:00 +18°C° 0 mm 2 mps 747 mmHg 69%
    20:00 +16°C° 0 mm 2 mps 747 mmHg 73%
    21:00 +15°C° 0 mm 2 mps 747 mmHg 77%
    22:00 +13°C° 0 mm 2 mps 747 mmHg 81%
    23:00 +12°C° 0 mm 2 mps 747 mmHg 83%

    Day after tomorrow, 26 May, Sunday

    Time Temperature Precipitation Wind Pressure Humidity
    00:00 +12°C° 0 mm 1 mps 747 mmHg 86%
    01:00 +11°C° 0 mm 1 mps 747 mmHg 89%
    02:00 +11°C° 0 mm 1 mps 747 mmHg 90%
    03:00 +10°C° 0 mm 1 mps 747 mmHg 91%
    04:00 +10°C° 0 mm 1 mps 747 mmHg 92%
    05:00 +12°C° 0 mm 2 mps 747 mmHg 87%
    06:00 +13°C° 0 mm 2 mps 747 mmHg 81%
    07:00 +14°C° 0 mm 3 mps 747 mmHg 76%
    08:00 +16°C° 0 mm 3 mps 747 mmHg 71%
    09:00 +18°C° 0 mm 4 mps 747 mmHg 66%
    10:00 +19°C° 0 mm 4 mps 747 mmHg 60%
    11:00 +20°C° 0.1 mm 4 mps 747 mmHg 58%
    12:00 +21°C° 0.1 mm 5 mps 746 mmHg 56%
    13:00 +21°C° 0.1 mm 5 mps 746 mmHg 54%
    14:00 +22°C° 0 mm 5 mps 746 mmHg 54%
    15:00 +22°C° 0 mm 5 mps 746 mmHg 53%
    16:00 +22°C° 0 mm 5 mps 745 mmHg 53%
    17:00 +21°C° 0 mm 4 mps 745 mmHg 59%
    18:00 +19°C° 0 mm 3 mps 746 mmHg 64%
    19:00 +18°C° 0 mm 2 mps 746 mmHg 70%
    20:00 +17°C° 0 mm 2 mps 746 mmHg 72%
    21:00 +16°C° 0 mm 2 mps 746 mmHg 74%
    22:00 +15°C° 0 mm 2 mps 746 mmHg 76%
    23:00 +15°C° 0 mm 2 mps 746 mmHg 78%

    27 May, Monday

    Time Temperature Precipitation Wind Pressure Humidity
    00:00 +14°C° 0 mm 2 mps 746 mmHg 81%
    01:00 +14°C° 0 mm 2 mps 746 mmHg 84%
    02:00 +13°C° 0 mm 2 mps 745 mmHg 83%
    03:00 +13°C° 0 mm 2 mps 745 mmHg 83%
    04:00 +13°C° 0 mm 2 mps 745 mmHg 82%
    05:00 +14°C° 0 mm 3 mps 745 mmHg 77%
    06:00 +17°C° 0 mm 4 mps 745 mmHg 73%
    07:00 +19°C° 0 mm 4 mps 745 mmHg 68%
    08:00 +20°C° 0 mm 4 mps 745 mmHg 64%
    09:00 +22°C° 0 mm 5 mps 744 mmHg 59%
    10:00 +23°C° 0 mm 5 mps 744 mmHg 54%
    11:00 +23°C° 0.3 mm 5 mps 744 mmHg 57%
    12:00 +23°C° 0.3 mm 5 mps 744 mmHg 60%
    13:00 +23°C° 0.3 mm 5 mps 744 mmHg 63%
    14:00 +22°C° 1 mm 5 mps 744 mmHg 68%
    15:00 +22°C° 1 mm 4 mps 744 mmHg 73%
    16:00 +21°C° 1 mm 4 mps 743 mmHg 78%
    17:00 +20°C° 0.6 mm 3 mps 744 mmHg 81%
    18:00 +19°C° 0.6 mm 2 mps 744 mmHg 85%
    19:00 +19°C° 0.6 mm 1 mps 744 mmHg 88%
    20:00 +18°C° 0 mm 1 mps 744 mmHg 89%
    21:00 +16°C° 0 mm 1 mps 744 mmHg 90%
    22:00 +15°C° 0 mm 1 mps 744 mmHg 91%
    23:00 +15°C° 0 mm 1 mps 744 mmHg 92%

    28 May, Tuesday

    Time Temperature Precipitation Wind Pressure Humidity
    00:00 +15°C° 0 mm 1 mps 744 mmHg 92%
    01:00 +14°C° 0 mm 1 mps 744 mmHg 92%
    02:00 +14°C° 0 mm 1 mps 744 mmHg 92%
    03:00 +14°C° 0 mm 1 mps 743 mmHg 92%
    04:00 +13°C° 0 mm 1 mps 743 mmHg 92%
    05:00 +14°C° 0.2 mm 1 mps 743 mmHg 92%
    06:00 +14°C° 0.2 mm 2 mps 743 mmHg 92%
    07:00 +14°C° 0.2 mm 2 mps 743 mmHg 92%
    08:00 +14°C° 0.5 mm 2 mps 742 mmHg 92%
    09:00 +13°C° 0.5 mm 3 mps 742 mmHg 92%
    10:00 +14°C° 0.5 mm 3 mps 742 mmHg 92%
    11:00 +14°C° 1.2 mm 3 mps 742 mmHg 92%
    12:00 +14°C° 1.2 mm 3 mps 742 mmHg 92%
    13:00 +16°C° 1.2 mm 3 mps 741 mmHg 92%
    14:00 +14°C° 1.3 mm 3 mps 741 mmHg 93%
    15:00 +14°C° 1.3 mm 3 mps 741 mmHg 93%
    16:00 +14°C° 1.3 mm 3 mps 741 mmHg 94%
    17:00 +14°C° 0.6 mm 3 mps 741 mmHg 95%
    18:00 +14°C° 0.6 mm 3 mps 741 mmHg 95%
    19:00 +14°C° 0.6 mm 3 mps 741 mmHg 96%
    20:00 +13°C° 0.7 mm 3 mps 742 mmHg 96%
    21:00 +13°C° 0.7 mm 3 mps 742 mmHg 97%
    22:00 +13°C° 0.7 mm 3 mps 742 mmHg 97%
    23:00 +13°C° 0.4 mm 3 mps 742 mmHg 97%

    29 May, Wednesday

    Time Temperature Precipitation Wind Pressure Humidity
    00:00 +13°C° 0.4 mm 3 mps 742 mmHg 97%
    01:00 +12°C° 0.4 mm 3 mps 742 mmHg 97%
    02:00 +12°C° 0.4 mm 3 mps 742 mmHg 97%
    03:00 +12°C° 0.4 mm 3 mps 743 mmHg 97%
    04:00 +12°C° 0.4 mm 4 mps 743 mmHg 97%
    05:00 +12°C° 0.3 mm 4 mps 743 mmHg 96%
    06:00 +12°C° 0.3 mm 4 mps 743 mmHg 95%
    07:00 +12°C° 0.3 mm 4 mps 743 mmHg 94%
    08:00 +13°C° 0.2 mm 4 mps 744 mmHg 91%
    09:00 +13°C° 0.2 mm 4 mps 744 mmHg 88%
    10:00 +14°C° 0.2 mm 4 mps 744 mmHg 85%
    11:00 +14°C° 0.2 mm 3 mps 744 mmHg 85%
    12:00 +16°C° 0.2 mm 2 mps 745 mmHg 84%
    13:00 +16°C° 0.2 mm 2 mps 745 mmHg 84%
    14:00 +15°C° 0.6 mm 2 mps 745 mmHg 87%
    15:00 +15°C° 0.6 mm 2 mps 745 mmHg 90%
    16:00 +15°C° 0.6 mm 1 mps 746 mmHg 93%
    17:00 +14°C° 0.9 mm 2 mps 746 mmHg 93%
    18:00 +13°C° 0.9 mm 3 mps 747 mmHg 93%
    19:00 +12°C° 0.9 mm 3 mps 747 mmHg 93%
    20:00 +12°C° 0.2 mm 4 mps 748 mmHg 94%
    21:00 +12°C° 0.2 mm 4 mps 748 mmHg 94%
    22:00 +12°C° 0.2 mm 4 mps 749 mmHg 95%
    23:00 +11°C° 0.2 mm 4 mps 750 mmHg 95%
    Show more